Regional Weather Roundup
Issued by NWS

Home | Current Version | Previous Version | Graphics & Text | Print | Product List | Glossary On
Versions: 1 2 3 4 5 6 7 8 9 10 11 12 13 14 15 16 17 18 19 20 21 22 23 24 25 26 27 28 29 30 31 32 33 34 35 36 37 38 39 40 41 42 43 44 45 46 47 48 49 50
000
ASUS43 KMKX 252114
RWRWI

WISCONSIN REGIONAL WEATHER ROUNDUP
NATIONAL WEATHER SERVICE MILWAUKEE/SULLIVAN WI
400 PM CDT MON MAY 25 2015

NOTE: "FAIR" INDICATES FEW OR NO CLOUDS BELOW 12,000 FEET WITH NO
SIGNIFICANT WEATHER AND/OR OBSTRUCTIONS TO VISIBILITY.

WIZ001-002-006>008-014>016-023>028-252200-
NORTHWEST WISCONSIN

CITY           SKY/WX    TMP DP  RH WIND       PRES   REMARKS
SUPERIOR ARPT  CLOUDY    46  46  99 NE6       29.72R
ASHLAND        CLOUDY    58  56  93 CALM      29.70R
HAYWARD        CLOUDY    65  57  75 SW8       29.71R
SIREN          CLOUDY    66  57  74 SW15      29.71R
CUMBERLAND     CLOUDY    64  55  72 SW12      29.73R
RICE LAKE      CLOUDY    65  56  71 SW12      29.75R
CHETEK         CLOUDY    67  59  77 SW6       29.74R
LADYSMITH      CLOUDY    67  59  74 SW10G17   29.76R
EAU CLAIRE     CLOUDY    72  58  61 SW17G23   29.73S
MENOMONIE      PTSUNNY   72  58  62 SW12G21   29.73S
NEW RICHMOND   CLOUDY    66  59  77 SW13G18   29.74S
OSCEOLA        CLOUDY    67  61  80 SW12G18   29.75S
$$

WIZ003>005-009-010-017-018-252200-
NORTH CENTRAL WISCONSIN

CITY           SKY/WX    TMP DP  RH WIND       PRES   REMARKS
MANITOWISH WTR CLOUDY    64  62  93 W9        29.71R
ARBOR VITAE    CLOUDY    66  62  87 SW12      29.72S
WOODRUFF       CLOUDY    66  62  87 SW12      29.72S
RHINELANDER    CLOUDY    68  59  73 W16G24    29.74R
EAGLE RIVER    CLOUDY    65  62  90 SW15G21   29.72R
LAND O LAKES   CLOUDY    64  61  90 SW7       29.73R FOG
PHILLIPS       CLOUDY    66  60  81 SW12G18   29.72R
TOMAHAWK       CLOUDY    68  59  72 SW5       29.74S
MEDFORD        CLOUDY    67  59  77 SW14G20   29.77R
MERRILL        CLOUDY    69  61  75 W15G21    29.76R
$$

WIZ029-030-035-036-043>047-252200-
CENTRAL WISCONSIN

CITY           SKY/WX    TMP DP  RH WIND       PRES   REMARKS
WAUSAU         CLOUDY    70  59  68 SW12G28   29.75R
MOSINEE        PTSUNNY   72  63  73 SW13      29.77R
MARSHFIELD     PTSUNNY   74  60  61 SW16G23   29.76R
STEVENS POINT  PTSUNNY   73  59  61 SW15G24   29.77R
WAUPACA        PTSUNNY   78  61  54 SW14G21   29.77R HX  80
WAUTOMA        PTSUNNY   79  62  55 SW17G23   29.78R HX  80
WISC RAPIDS    PTSUNNY   76  58  53 W15G22    29.78R
CAMP DOUGLAS   SUNNY     79  65  64 SW20G25   29.77R HX  80
$$

WIZ011>013-019>022-031-037>040-048>050-252200-
NORTHEAST WISCONSIN

CITY           SKY/WX    TMP DP  RH WIND       PRES   REMARKS
ANTIGO         PTSUNNY   69  62  77 W17G28    29.76S
SHAWANO        PTSUNNY   77  62  60 SW10G17   29.74S
OCONTO         PTSUNNY   75  63  66 W13G23    29.73S
STURGEON BAY   PTSUNNY   73  63  68 SW22G30   29.76S
GREEN BAY      PTSUNNY   76  62  62 SW21G28   29.75S
MANITOWOC      SUNNY     76  61  59 W17G30    29.78S
APPLETON       PTSUNNY   75  61  60 SW21G28   29.78R
CLINTONVILLE   PTSUNNY   75  59  57 W14G23    29.75R
OSHKOSH        MOSUNNY   75  61  61 SW12G22   29.78R
$$

WIZ032>034-041-042-053>061-252200-
SOUTHWEST WISCONSIN

CITY           SKY/WX    TMP DP  RH WIND       PRES   REMARKS
LA CROSSE      TSTM      77  62  59 SW12G21   29.75S
SPARTA         MOSUNNY   77  58  52 SW13G20   29.77F
VIROQUA        PTSUNNY   75  61  63 SW15      29.80F
BOSCOBEL       PTSUNNY   79  62  56 SW18G24   29.81R HX  80
PRAIRIE DU CHI MOSUNNY   78  58  48 SW21G26   29.80F
PLATTEVILLE    PTSUNNY   77  64  63 SW21G26   29.86R
$$

WIZ056-057-062-063-064-067-068-252200-
SOUTH CENTRAL WISCONSIN

CITY           SKY/WX    TMP DP  RH WIND       PRES   REMARKS
REEDSBURG      PTSUNNY   74  63  67 SW17      29.80S
BARABOO/DELLS  PTSUNNY   76  62  62 SW13G22   29.81R
LONE ROCK      PTSUNNY   77  61  57 SW13G24   29.82R
MINERAL POINT  MOSUNNY   77  61  57 SW16G26   29.86R
MADISON        PTSUNNY   77  61  57 SW9       29.83R
MIDDLETON      PTSUNNY   79  60  51 SW20      29.84R HX  80
WATERTOWN      PTSUNNY   77  63  62 SW17G23   29.83R
MONROE         MOSUNNY   77  61  57 SW23G31   29.88R
JANESVILLE     PTSUNNY   79  61  53 SW20G26   29.87R HX  80
$$

WIZ051-052-058>065-066-070>072-252200-
SOUTHEAST WISCONSIN

CITY           SKY/WX    TMP DP  RH WIND       PRES   REMARKS
MILWAUKEE      PTSUNNY   78  58  49 SW18G26   29.85S
WAUKESHA       PTSUNNY   75  61  60 SW16G23   29.85S
MILWAUKEE/TIMM PTSUNNY   77  55  47 SW17G26   29.85R
RACINE         MOSUNNY   77  61  57 SW18G24   29.87R
BURLINGTON     PTSUNNY   76  61  58 SW20G25   29.87R
KENOSHA        MOSUNNY   78  62  57 SW17G29   29.87R HX  80
FOND DU LAC    PTSUNNY   76  61  59 SW15G25   29.81R
SHEBOYGAN      SUNNY     76  63  64 SW17G26   29.80R
WEST BEND      MOSUNNY   77  57  50 W16G26    29.83R
JUNEAU         CLOUDY    74  61  63 SW18G26   29.84R
$$

LSZ147-162-252200-
LAKE SUPERIOR

STATION/POSITION TIME  TEMP    WIND        PRES    WAVE
                       AIR SEA DIR/SP/G            HT/PER
                 (UTC) (F)     (DEG/KT/KT) (MB)    (FT/S)
W MID LAKE BUOY  2050   39 36   30/ 12/ 14 1054.0R   3/ 5
DEVILS ISLAND    2100   42      70/  7/  8 1070.0R
PORT WING        2000   43      20/  8/ 12 1061.0
SAXON HARBOR     2000   47        CALM     1054.0R
$$

LMZ867-665-643>646-252200-
LAKE MICHIGAN

STATION/POSITION TIME  TEMP    WIND        PRES    WAVE
                       AIR SEA DIR/SP/G            HT/PER
                 (UTC) (F)     (DEG/KT/KT) (MB)    (FT/S)
CHAMBERS ISLAND  2000   66     160/  4/ 12 1068.0R
N MID LAKE BUOY  2050   43 37  200/ 16/ 17 1074.0R   5/ 6
NORTHPORT PIER   2000   58     140/  7/ 10 1064.0R
SISTER BAY       2017   69     230/ 17/ 20   N/A
KEWAUNEE LAKESHO 2000   62     180/ 12/ 15 1069.0R
SHEBOYGAN LAKESH 2100          240/ 13/ 15   N/A
PORT WASHINGTON  1900          250/ 15/ 23   N/A
ATWATER BUOY     2000   69 45  230/ 17/ 21   N/A
MILWAUKEE LAKESH 2000   73     230/ 20/ 25   N/A
S MID LAKE BUOY  2050   47 38  200/ 12/ 14   N/A     2/ 4
KENOSHA   LAKESH 2100   78     240/ 18/ 26   N/A
$$

TC  - TEMPERATURE IN CELSIUS
VSB - VISIBILITY IN STATUTE MILES
WCI - WIND CHILL INDEX
HX  - HEAT INDEX



USA.gov is the U.S. government's official web portal to all federal, state and local government web resources and services.